| time (UTC) | temp C | wind direction | speed KPH | gust KPH | rain 1hr cm | rain 24hr cm | rain mn cm | humidity % | barometer mb |
| 20260505093156 | 33 | 150 | 4.8 | 8.0 | 0.00 | 0.00 | 0.00 | 63 | 1006.3 |
| 20260505092656 | 33 | 146 | 4.8 | 9.7 | 0.00 | 0.00 | 0.00 | 63 | 1006.4 |
| 20260505092157 | 33 | 143 | 6.4 | 12.9 | 0.00 | 0.00 | 0.00 | 62 | 1006.4 |
| 20260505091656 | 33 | 127 | 6.4 | 14.5 | 0.00 | 0.00 | 0.00 | 61 | 1006.4 |
| 20260505091156 | 33 | 158 | 4.8 | 8.0 | 0.00 | 0.00 | 0.00 | 62 | 1006.5 |
| 20260505090657 | 33 | 145 | 8.0 | 11.3 | 0.00 | 0.00 | 0.00 | 62 | 1006.6 |
| 20260505090156 | 33 | 164 | 3.2 | 8.0 | 0.00 | 0.00 | 0.00 | 63 | 1006.6 |
| 20260505085657 | 33 | 170 | 6.4 | 14.5 | 0.00 | 0.00 | 0.00 | 63 | 1006.7 |
| 20260505085157 | 33 | 146 | 4.8 | 11.3 | 0.00 | 0.00 | 0.00 | 62 | 1006.7 |
| 20260505084657 | 33 | 165 | 6.4 | 11.3 | 0.00 | 0.00 | 0.00 | 62 | 1006.7 |
| 20260505084156 | 33 | 124 | 4.8 | 9.7 | 0.00 | 0.00 | 0.00 | 60 | 1006.7 |
| 20260505083657 | 33 | 139 | 4.8 | 9.7 | 0.00 | 0.00 | 0.00 | 60 | 1006.8 |
| 20260505083156 | 33 | 165 | 3.2 | 6.4 | 0.00 | 0.00 | 0.00 | 60 | 1006.9 |
| 20260505082656 | 33 | 104 | 6.4 | 12.9 | 0.00 | 0.00 | 0.00 | 58 | 1006.9 |
| 20260505082156 | 33 | 155 | 4.8 | 12.9 | 0.00 | 0.00 | 0.00 | 56 | 1007.0 |
| 20260505081657 | 34 | 176 | 6.4 | 9.7 | 0.00 | 0.00 | 0.00 | 56 | 1007.0 |
| 20260505081157 | 34 | 172 | 4.8 | 8.0 | 0.00 | 0.00 | 0.00 | 56 | 1007.0 |
| 20260505080657 | 34 | 144 | 3.2 | 8.0 | 0.00 | 0.00 | 0.00 | 55 | 1007.0 |
| 20260505080156 | 34 | 158 | 4.8 | 9.7 | 0.00 | 0.00 | 0.00 | 57 | 1007.1 |
| 20260505075656 | 35 | 114 | 6.4 | 14.5 | 0.00 | 0.00 | 0.00 | 54 | 1007.1 |
| 20260505075156 | 35 | 164 | 4.8 | 8.0 | 0.00 | 0.00 | 0.00 | 54 | 1007.2 |
| 20260505074656 | 34 | 152 | 6.4 | 9.7 | 0.00 | 0.00 | 0.00 | 52 | 1007.2 |
| 20260505074156 | 35 | 157 | 6.4 | 12.9 | 0.00 | 0.00 | 0.00 | 52 | 1007.2 |
| 20260505073656 | 34 | 100 | 3.2 | 6.4 | 0.00 | 0.00 | 0.00 | 54 | 1007.2 |
| 20260505073157 | 34 | 93 | 4.8 | 12.9 | 0.00 | 0.00 | 0.00 | 55 | 1007.3 |
| 20260505072656 | 34 | 157 | 4.8 | 8.0 | 0.00 | 0.00 | 0.00 | 54 | 1007.4 |
| 20260505072156 | 34 | 130 | 4.8 | 9.7 | 0.00 | 0.00 | 0.00 | 55 | 1007.5 |
| 20260505071656 | 34 | 138 | 3.2 | 8.0 | 0.00 | 0.00 | 0.00 | 55 | 1007.6 |
| 20260505071159 | 34 | 178 | 3.2 | 6.4 | 0.00 | 0.00 | 0.00 | 55 | 1007.7 |
| 20260505070657 | 34 | 81 | 4.8 | 12.9 | 0.00 | 0.00 | 0.00 | 56 | 1007.8 |
| 20260505070157 | 35 | 171 | 4.8 | 9.7 | 0.00 | 0.00 | 0.00 | 54 | 1007.9 |
| 20260505065656 | 35 | 169 | 3.2 | 9.7 | 0.00 | 0.00 | 0.00 | 54 | 1007.9 |
| 20260505065156 | 35 | 92 | 4.8 | 9.7 | 0.00 | 0.00 | 0.00 | 53 | 1007.9 |
| 20260505064656 | 35 | 160 | 3.2 | 6.4 | 0.00 | 0.00 | 0.00 | 53 | 1008.0 |
| 20260505064156 | 35 | 153 | 4.8 | 6.4 | 0.00 | 0.00 | 0.00 | 54 | 1008.1 |
| 20260505063656 | 35 | 141 | 6.4 | 6.4 | 0.00 | 0.00 | 0.00 | 53 | 1008.1 |
| 20260505063156 | 35 | 156 | 3.2 | 4.8 | 0.00 | 0.00 | 0.00 | 53 | 1008.2 |
| 20260505062656 | 35 | 91 | 4.8 | 6.4 | 0.00 | 0.00 | 0.00 | 53 | 1008.3 |
| 20260505062156 | 35 | 159 | 4.8 | 4.8 | 0.00 | 0.00 | 0.00 | 53 | 1008.3 |
| 20260505061657 | 35 | 145 | 4.8 | 6.4 | 0.00 | 0.00 | 0.00 | 53 | 1008.3 |
| 20260505061156 | 35 | 171 | 4.8 | 6.4 | 0.00 | 0.00 | 0.00 | 53 | 1008.4 |
| 20260505060656 | 34 | 101 | 1.6 | 3.2 | 0.00 | 0.00 | 0.00 | 55 | 1008.4 |
| 20260505060157 | 34 | 69 | 3.2 | 6.4 | 0.00 | 0.00 | 0.00 | 56 | 1008.5 |
| 20260505055656 | 35 | 167 | 3.2 | 3.2 | 0.00 | 0.00 | 0.00 | 55 | 1008.6 |
| 20260505055157 | 35 | 188 | 4.8 | 6.4 | 0.00 | 0.00 | 0.00 | 55 | 1008.5 |
| 20260505054656 | 36 | 151 | 3.2 | 4.8 | 0.00 | 0.00 | 0.00 | 53 | 1008.6 |
| 20260505054157 | 35 | 329 | 1.6 | 1.6 | 0.00 | 0.00 | 0.00 | 50 | 1008.5 |
| 20260505053657 | 35 | 47 | 3.2 | 4.8 | 0.00 | 0.00 | 0.00 | 52 | 1008.6 |
| 20260505053157 | 35 | 190 | 1.6 | 3.2 | 0.00 | 0.00 | 0.00 | 51 | 1008.7 |
| 20260505052656 | 35 | 195 | 1.6 | 3.2 | 0.00 | 0.00 | 0.00 | 51 | 1008.7 |
| 20260505052156 | 35 | 212 | 3.2 | 4.8 | 0.00 | 0.00 | 0.00 | 52 | 1008.7 |
| 20260505051656 | 35 | 316 | 1.6 | 3.2 | 0.00 | 0.00 | 0.00 | 52 | 1008.7 |
| 20260505051157 | 35 | 233 | 1.6 | 3.2 | 0.00 | 0.00 | 0.00 | 53 | 1008.8 |
| 20260505050656 | 35 | 164 | 1.6 | 3.2 | 0.00 | 0.00 | 0.00 | 52 | 1008.8 |
| 20260505050157 | 35 | 202 | 3.2 | 4.8 | 0.00 | 0.00 | 0.00 | 52 | 1008.9 |
| 20260505041656 | 33 | 198 | 3.2 | 4.8 | 0.00 | 0.00 | 0.00 | 57 | 1008.9 |
| 20260505041156 | 33 | 217 | 3.2 | 3.2 | 0.00 | 0.00 | 0.00 | 58 | 1008.8 |
| 20260505040656 | 33 | 209 | 1.6 | 3.2 | 0.00 | 0.00 | 0.00 | 58 | 1008.8 |
| 20260505040156 | 33 | 212 | 4.8 | 11.3 | 0.00 | 0.00 | 0.00 | 57 | 1008.9 |
| 20260505035656 | 33 | 179 | 3.2 | 4.8 | 0.00 | 0.00 | 0.00 | 56 | 1008.8 |
| 20260505035156 | 34 | 194 | 3.2 | 3.2 | 0.00 | 0.00 | 0.00 | 55 | 1008.7 |
| 20260505034656 | 34 | 198 | 3.2 | 3.2 | 0.00 | 0.00 | 0.00 | 55 | 1008.7 |
| 20260505034156 | 33 | 201 | 3.2 | 3.2 | 0.00 | 0.00 | 0.00 | 56 | 1008.6 |
| 20260505033656 | 33 | 201 | 3.2 | 8.0 | 0.00 | 0.00 | 0.00 | 57 | 1008.5 |
| 20260505033156 | 33 | 48 | 3.2 | 4.8 | 0.00 | 0.00 | 0.00 | 57 | 1008.6 |
| 20260505032657 | 33 | 33 | 3.2 | 4.8 | 0.00 | 0.00 | 0.00 | 55 | 1008.5 |
| 20260505032157 | 33 | 5 | 3.2 | 4.8 | 0.00 | 0.00 | 0.00 | 56 | 1008.4 |
| 20260505031657 | 33 | 276 | 3.2 | 4.8 | 0.00 | 0.00 | 0.00 | 57 | 1008.4 |
| 20260505031201 | 33 | 188 | 3.2 | 3.2 | 0.00 | 0.00 | 0.00 | 56 | 1008.4 |
| 20260505030656 | 33 | 201 | 3.2 | 4.8 | 0.00 | 0.00 | 0.00 | 55 | 1008.3 |
| 20260505030200 | 33 | 218 | 3.2 | 3.2 | 0.00 | 0.00 | 0.00 | 56 | 1008.2 |
| 20260505025657 | 33 | 242 | 4.8 | 4.8 | 0.00 | 0.00 | 0.00 | 56 | 1008.3 |
| 20260505025157 | 33 | 206 | 4.8 | 6.4 | 0.00 | 0.00 | 0.00 | 55 | 1008.2 |
| 20260505024657 | 32 | 239 | 1.6 | 3.2 | 0.00 | 0.00 | 0.00 | 56 | 1008.2 |
| 20260505024156 | 32 | 210 | 3.2 | 3.2 | 0.00 | 0.00 | 0.00 | 56 | 1008.2 |
| 20260505023657 | 32 | 215 | 4.8 | 8.0 | 0.00 | 0.00 | 0.00 | 56 | 1008.2 |
| 20260505023156 | 32 | 212 | 3.2 | 4.8 | 0.00 | 0.00 | 0.00 | 56 | 1008.1 |
| 20260505022656 | 33 | 215 | 3.2 | 4.8 | 0.00 | 0.00 | 0.00 | 55 | 1008.1 |
| 20260505022156 | 33 | 158 | 3.2 | 4.8 | 0.00 | 0.00 | 0.00 | 55 | 1008.0 |
| 20260505021656 | 33 | 184 | 3.2 | 3.2 | 0.00 | 0.00 | 0.00 | 56 | 1007.9 |
| 20260505021157 | 32 | 201 | 1.6 | 3.2 | 0.00 | 0.00 | 0.00 | 56 | 1007.9 |
| 20260505020657 | 32 | 204 | 3.2 | 3.2 | 0.00 | 0.00 | 0.00 | 57 | 1007.9 |
| 20260505020158 | 32 | 224 | 0.0 | 1.6 | 0.00 | 0.00 | 0.00 | 59 | 1007.8 |
| 20260505015657 | 31 | 273 | 1.6 | 1.6 | 0.00 | 0.00 | 0.00 | 59 | 1007.9 |
| 20260505015156 | 31 | 39 | 1.6 | 1.6 | 0.00 | 0.00 | 0.00 | 61 | 1007.9 |
| 20260505014656 | 30 | 236 | 1.6 | 1.6 | 0.00 | 0.00 | 0.00 | 61 | 1007.9 |
| 20260505014156 | 30 | 35 | 0.0 | 1.6 | 0.00 | 0.00 | 0.00 | 62 | 1007.7 |
| 20260505013656 | 30 | 16 | 1.6 | 1.6 | 0.00 | 0.00 | 0.00 | 63 | 1007.6 |
| 20260505013156 | 30 | 116 | 1.6 | 1.6 | 0.00 | 0.00 | 0.00 | 63 | 1007.6 |
| 20260505012656 | 30 | 231 | 0.0 | 1.6 | 0.00 | 0.00 | 0.00 | 64 | 1007.5 |
| 20260505012156 | 29 | 0 | 0.0 | 0.0 | 0.00 | 0.00 | 0.00 | 64 | 1007.5 |
| 20260505011656 | 29 | 127 | 0.0 | 0.0 | 0.00 | 0.00 | 0.00 | 64 | 1007.5 |
| 20260505011200 | 29 | 121 | 0.0 | 1.6 | 0.00 | 0.00 | 0.00 | 64 | 1007.4 |
| 20260505010657 | 29 | 0 | 0.0 | 0.0 | 0.00 | 0.00 | 0.00 | 65 | 1007.3 |
| 20260505010156 | 29 | 83 | 0.0 | 1.6 | 0.00 | 0.00 | 0.00 | 66 | 1007.2 |
| 20260505005657 | 29 | 316 | 1.6 | 1.6 | 0.00 | 0.00 | 0.00 | 66 | 1007.1 |
| 20260505005156 | 29 | 211 | 0.0 | 0.0 | 0.00 | 0.00 | 0.00 | 66 | 1007.2 |
| 20260505004656 | 29 | 145 | 1.6 | 1.6 | 0.00 | 0.00 | 0.00 | 66 | 1007.2 |
| 20260505004156 | 29 | 170 | 0.0 | 0.0 | 0.00 | 0.00 | 0.00 | 66 | 1007.1 |
| 20260505003656 | 29 | 160 | 1.6 | 1.6 | 0.00 | 0.00 | 0.00 | 66 | 1007.1 |
| 20260505003158 | 29 | 82 | 1.6 | 1.6 | 0.00 | 0.00 | 0.00 | 66 | 1007.1 |
| 20260505002656 | 29 | 283 | 1.6 | 1.6 | 0.00 | 0.00 | 0.00 | 66 | 1007.1 |
| 20260505002157 | 29 | 287 | 0.0 | 0.0 | 0.00 | 0.00 | 0.00 | 66 | 1007.0 |
| 20260505001658 | 29 | 69 | 0.0 | 1.6 | 0.00 | 0.00 | 0.00 | 66 | 1007.1 |
| 20260505001157 | 29 | 48 | 0.0 | 1.6 | 0.00 | 0.00 | 0.00 | 66 | 1007.1 |
| 20260505000656 | 29 | 132 | 1.6 | 3.2 | 0.00 | 0.00 | 0.00 | 67 | 1007.0 |
| 20260505000156 | 29 | 246 | 1.6 | 1.6 | 0.00 | 0.00 | 0.00 | 68 | 1007.1 |
| 20260504235657 | 29 | 0 | 0.0 | 0.0 | 0.00 | 0.00 | 0.00 | 68 | 1007.1 |
| 20260504235156 | 29 | 301 | 0.0 | 3.2 | 0.00 | 0.00 | 0.00 | 68 | 1007.1 |
| 20260504234656 | 29 | 64 | 0.0 | 3.2 | 0.00 | 0.00 | 0.00 | 68 | 1007.1 |
| 20260504234157 | 29 | 130 | 1.6 | 3.2 | 0.00 | 0.00 | 0.00 | 68 | 1007.0 |
| 20260504233656 | 29 | 54 | 1.6 | 1.6 | 0.00 | 0.00 | 0.00 | 69 | 1007.0 |
| 20260504233158 | 29 | 19 | 1.6 | 3.2 | 0.00 | 0.00 | 0.00 | 69 | 1007.1 |
| 20260504232657 | 29 | 193 | 1.6 | 1.6 | 0.00 | 0.00 | 0.00 | 69 | 1007.1 |
| 20260504232157 | 29 | 166 | 1.6 | 3.2 | 0.00 | 0.00 | 0.00 | 69 | 1007.1 |
| 20260504231702 | 29 | 21 | 1.6 | 3.2 | 0.00 | 0.00 | 0.00 | 68 | 1007.1 |
| 20260504231156 | 29 | 39 | 1.6 | 3.2 | 0.00 | 0.00 | 0.00 | 68 | 1007.1 |
| 20260504230656 | 29 | 352 | 3.2 | 4.8 | 0.00 | 0.00 | 0.00 | 69 | 1007.0 |
| 20260504230158 | 29 | 45 | 1.6 | 3.2 | 0.00 | 0.00 | 0.00 | 70 | 1007.1 |
| 20260504225656 | 29 | 313 | 0.0 | 1.6 | 0.00 | 0.00 | 0.00 | 70 | 1007.0 |
| 20260504225156 | 29 | 232 | 3.2 | 4.8 | 0.00 | 0.00 | 0.00 | 70 | 1007.0 |
| 20260504224656 | 29 | 229 | 1.6 | 3.2 | 0.00 | 0.00 | 0.00 | 70 | 1006.9 |
| 20260504224156 | 29 | 211 | 3.2 | 6.4 | 0.00 | 0.00 | 0.00 | 70 | 1006.9 |
| 20260504223656 | 29 | 264 | 1.6 | 1.6 | 0.00 | 0.00 | 0.00 | 71 | 1006.9 |
| 20260504223158 | 29 | 224 | 1.6 | 4.8 | 0.00 | 0.00 | 0.00 | 71 | 1007.0 |
| 20260504222656 | 29 | 18 | 1.6 | 3.2 | 0.00 | 0.00 | 0.00 | 71 | 1007.0 |
| 20260504222158 | 29 | 166 | 1.6 | 3.2 | 0.00 | 0.00 | 0.00 | 71 | 1007.0 |
| 20260504221656 | 29 | 218 | 1.6 | 3.2 | 0.00 | 0.00 | 0.00 | 72 | 1007.1 |
| 20260504221156 | 29 | 213 | 1.6 | 4.8 | 0.00 | 0.00 | 0.00 | 72 | 1007.1 |
| 20260504220657 | 29 | 245 | 1.6 | 3.2 | 0.00 | 0.00 | 0.00 | 72 | 1007.1 |
| 20260504220158 | 29 | 221 | 3.2 | 4.8 | 0.00 | 0.00 | 0.00 | 72 | 1007.2 |
| 20260504215656 | 29 | 156 | 3.2 | 4.8 | 0.00 | 0.00 | 0.00 | 72 | 1007.3 |
| 20260504215156 | 29 | 206 | 3.2 | 6.4 | 0.00 | 0.00 | 0.00 | 72 | 1007.4 |
| 20260504214657 | 29 | 154 | 1.6 | 3.2 | 0.00 | 0.00 | 0.00 | 72 | 1007.4 |
| 20260504214156 | 29 | 29 | 1.6 | 3.2 | 0.00 | 0.00 | 0.00 | 72 | 1007.4 |
| 20260504213656 | 28 | 231 | 1.6 | 3.2 | 0.00 | 0.00 | 0.00 | 73 | 1007.5 |
| 20260504213156 | 28 | 202 | 1.6 | 3.2 | 0.00 | 0.00 | 0.00 | 73 | 1007.7 |
| 20260504212657 | 28 | 23 | 1.6 | 3.2 | 0.00 | 0.00 | 0.00 | 73 | 1007.7 |
| 20260504212157 | 28 | 45 | 1.6 | 3.2 | 0.00 | 0.00 | 0.00 | 73 | 1007.8 |
| 20260504211656 | 28 | 98 | 3.2 | 6.4 | 0.00 | 0.00 | 0.00 | 74 | 1007.9 |
| 20260504211157 | 28 | 265 | 1.6 | 4.8 | 0.00 | 0.00 | 0.00 | 74 | 1007.9 |
| 20260504210657 | 28 | 59 | 1.6 | 3.2 | 0.00 | 0.00 | 0.00 | 74 | 1007.9 |
| 20260504210157 | 29 | 103 | 3.2 | 4.8 | 0.00 | 0.00 | 0.00 | 74 | 1007.9 |
| 20260504205656 | 29 | 81 | 3.2 | 6.4 | 0.00 | 0.00 | 0.00 | 73 | 1007.8 |
| 20260504205159 | 29 | 45 | 3.2 | 4.8 | 0.00 | 0.00 | 0.00 | 72 | 1007.8 |
| 20260504204657 | 30 | 57 | 1.6 | 4.8 | 0.00 | 0.00 | 0.00 | 72 | 1007.7 |
| 20260504204157 | 30 | 30 | 3.2 | 8.0 | 0.00 | 0.00 | 0.00 | 72 | 1007.7 |
| 20260504203658 | 30 | 110 | 1.6 | 3.2 | 0.00 | 0.00 | 0.00 | 73 | 1007.6 |
| 20260504203156 | 30 | 65 | 1.6 | 3.2 | 0.00 | 0.00 | 0.00 | 74 | 1007.5 |
| 20260504202657 | 30 | 73 | 1.6 | 3.2 | 0.00 | 0.00 | 0.00 | 75 | 1007.5 |
| 20260504202157 | 30 | 226 | 1.6 | 3.2 | 0.00 | 0.00 | 0.00 | 75 | 1007.5 |
| 20260504201656 | 30 | 199 | 1.6 | 4.8 | 0.00 | 0.00 | 0.00 | 75 | 1007.4 |
| 20260504201157 | 30 | 240 | 1.6 | 3.2 | 0.00 | 0.00 | 0.00 | 75 | 1007.4 |
| 20260504200657 | 30 | 222 | 3.2 | 4.8 | 0.00 | 0.00 | 0.00 | 76 | 1007.3 |
| 20260504200157 | 30 | 193 | 3.2 | 8.0 | 0.00 | 0.00 | 0.00 | 76 | 1007.2 |
| 20260504195656 | 30 | 160 | 1.6 | 3.2 | 0.00 | 0.00 | 0.00 | 76 | 1007.2 |
| 20260504195157 | 30 | 162 | 1.6 | 4.8 | 0.00 | 0.00 | 0.00 | 76 | 1007.2 |
| 20260504194659 | 30 | 188 | 3.2 | 6.4 | 0.00 | 0.00 | 0.00 | 76 | 1007.3 |
| 20260504194157 | 30 | 217 | 3.2 | 8.0 | 0.00 | 0.00 | 0.00 | 76 | 1007.3 |
| 20260504193657 | 30 | 182 | 3.2 | 6.4 | 0.00 | 0.00 | 0.00 | 76 | 1007.3 |
| 20260504193156 | 30 | 226 | 1.6 | 4.8 | 0.00 | 0.00 | 0.00 | 76 | 1007.3 |
| 20260504192656 | 30 | 174 | 3.2 | 4.8 | 0.00 | 0.00 | 0.00 | 76 | 1007.3 |
| 20260504192156 | 30 | 179 | 1.6 | 3.2 | 0.00 | 0.00 | 0.00 | 76 | 1007.3 |
| 20260504191657 | 30 | 205 | 1.6 | 6.4 | 0.00 | 0.00 | 0.00 | 76 | 1007.3 |
| 20260504191157 | 30 | 171 | 1.6 | 3.2 | 0.00 | 0.00 | 0.00 | 76 | 1007.4 |
| 20260504190656 | 30 | 166 | 3.2 | 6.4 | 0.00 | 0.00 | 0.00 | 75 | 1007.4 |
| 20260504190157 | 30 | 105 | 1.6 | 4.8 | 0.00 | 0.00 | 0.00 | 75 | 1007.3 |
| 20260504185656 | 30 | 192 | 3.2 | 6.4 | 0.00 | 0.00 | 0.00 | 75 | 1007.4 |
| 20260504185157 | 30 | 185 | 3.2 | 6.4 | 0.00 | 0.00 | 0.00 | 74 | 1007.3 |
| 20260504184658 | 30 | 177 | 1.6 | 3.2 | 0.00 | 0.00 | 0.00 | 73 | 1007.5 |
| 20260504184156 | 30 | 115 | 1.6 | 3.2 | 0.00 | 0.00 | 0.00 | 72 | 1007.5 |
| 20260504183656 | 30 | 169 | 1.6 | 3.2 | 0.00 | 0.00 | 0.00 | 72 | 1007.6 |
| 20260504183157 | 30 | 237 | 3.2 | 6.4 | 0.00 | 0.00 | 0.00 | 72 | 1007.8 |
| 20260504182657 | 30 | 223 | 3.2 | 4.8 | 0.00 | 0.00 | 0.03 | 72 | 1007.8 |
| 20260504182158 | 30 | 262 | 3.2 | 3.2 | 0.00 | 0.00 | 0.03 | 72 | 1007.7 |
| 20260504181656 | 30 | 245 | 1.6 | 4.8 | 0.00 | 0.00 | 0.03 | 72 | 1007.8 |
| 20260504181157 | 31 | 315 | 3.2 | 8.0 | 0.00 | 0.00 | 0.03 | 72 | 1007.7 |
| 20260504180657 | 31 | 219 | 3.2 | 6.4 | 0.00 | 0.00 | 0.03 | 73 | 1007.7 |
| 20260504180158 | 31 | 186 | 3.2 | 4.8 | 0.00 | 0.00 | 0.03 | 74 | 1007.6 |
| 20260504175657 | 31 | 229 | 3.2 | 8.0 | 0.00 | 0.00 | 0.03 | 73 | 1007.6 |
| 20260504175158 | 31 | 218 | 4.8 | 8.0 | 0.00 | 0.00 | 0.03 | 73 | 1007.6 |
| 20260504174656 | 31 | 195 | 1.6 | 4.8 | 0.00 | 0.00 | 0.03 | 74 | 1007.7 |
| 20260504174157 | 31 | 201 | 3.2 | 3.2 | 0.00 | 0.00 | 0.03 | 74 | 1007.8 |
| 20260504173657 | 31 | 177 | 4.8 | 6.4 | 0.00 | 0.00 | 0.03 | 73 | 1007.8 |
| 20260504173157 | 31 | 214 | 4.8 | 6.4 | 0.00 | 0.00 | 0.03 | 73 | 1007.8 |
| 20260504172657 | 31 | 221 | 3.2 | 9.7 | 0.00 | 0.00 | 0.03 | 73 | 1007.9 |
| 20260504172157 | 31 | 195 | 3.2 | 6.4 | 0.00 | 0.00 | 0.03 | 73 | 1007.9 |
| 20260504171701 | 31 | 216 | 4.8 | 9.7 | 0.00 | 0.00 | 0.03 | 73 | 1008.0 |
| 20260504171157 | 31 | 195 | 4.8 | 9.7 | 0.00 | 0.00 | 0.03 | 73 | 1008.2 |
| 20260504170656 | 31 | 212 | 3.2 | 4.8 | 0.00 | 0.00 | 0.03 | 75 | 1008.1 |
| 20260504170157 | 30 | 194 | 3.2 | 4.8 | 0.00 | 0.00 | 0.03 | 76 | 1008.1 |
| 20260504160157 | 30 | 157 | 3.2 | 11.3 | 0.00 | 0.00 | 0.03 | 81 | 1007.5 |
| 20260504150657 | 31 | 123 | 4.8 | 9.7 | 0.00 | 0.00 | 0.03 | 78 | 1007.2 |
| 20260504150157 | 31 | 141 | 3.2 | 6.4 | 0.00 | 0.00 | 0.03 | 77 | 1007.2 |
| 20260504141157 | 31 | 160 | 4.8 | 8.0 | 0.00 | 0.00 | 0.03 | 75 | 1006.1 |
| 20260504140703 | 31 | 115 | 3.2 | 8.0 | 0.00 | 0.00 | 0.03 | 74 | 1006.0 |
| 20260504140156 | 31 | 135 | 3.2 | 6.4 | 0.00 | 0.00 | 0.03 | 73 | 1006.0 |
| 20260504130656 | 31 | 154 | 3.2 | 9.7 | 0.00 | 0.00 | 0.03 | 71 | 1005.0 |
| 20260504130157 | 31 | 76 | 3.2 | 4.8 | 0.00 | 0.00 | 0.03 | 70 | 1005.0 |
| 20260504120201 | 31 | 183 | 3.2 | 6.4 | 0.03 | 0.00 | 0.03 | 71 | 1004.4 |
| 20260504110657 | 35 | 138 | 4.8 | 9.7 | 0.00 | 0.00 | 0.00 | 58 | 1003.8 |
| 20260504110157 | 35 | 165 | 4.8 | 9.7 | 0.00 | 0.00 | 0.00 | 59 | 1003.8 |
| 20260504100158 | 36 | 208 | 3.2 | 4.8 | 0.00 | 0.00 | 0.00 | 56 | 1004.3 |